Time,TemperatureF,DewpointF,PressureIn,WindDirection,WindDirectionDegrees,WindSpeedMPH,WindSpeedGustMPH,Humidity,HourlyPrecipIn,Conditions,Clouds,dailyrainin,SoftwareType,DateUTC
2013-03-08 00:02:00,25.0,19.0,30.16,WSW,237,0.0,4.0,79,0.00,,,0.02,,2013-03-08 05:02:00,
2013-03-08 00:12:00,25.0,19.0,30.16,WSW,237,0.0,4.0,79,0.00,,,0.02,,2013-03-08 05:12:00,
2013-03-08 00:22:00,25.0,20.0,30.15,SW,223,2.0,13.0,80,0.00,,,0.02,,2013-03-08 05:22:00,
2013-03-08 00:32:00,25.0,20.0,30.14,North,5,4.0,13.0,80,0.00,,,0.02,,2013-03-08 05:32:00,
2013-03-08 00:42:00,25.0,20.0,30.14,North,5,4.0,13.0,80,0.00,,,0.02,,2013-03-08 05:42:00,
2013-03-08 00:52:00,25.0,20.0,30.14,WNW,293,3.0,9.0,80,0.00,,,0.02,,2013-03-08 05:52:00,
2013-03-08 01:01:00,25.0,19.0,30.14,NNE,12,3.0,11.0,79,0.00,,,0.02,,2013-03-08 06:01:00,
2013-03-08 01:11:00,25.0,19.0,30.14,NNE,12,3.0,11.0,79,0.00,,,0.02,,2013-03-08 06:11:00,
2013-03-08 01:22:00,25.0,19.0,30.14,North,360,2.0,15.0,79,0.00,,,0.02,,2013-03-08 06:22:00,
2013-03-08 01:32:00,25.0,19.0,30.14,WNW,285,5.0,16.0,79,0.00,,,0.02,,2013-03-08 06:32:00,
2013-03-08 01:42:00,25.0,19.0,30.14,WNW,285,5.0,16.0,79,0.00,,,0.02,,2013-03-08 06:42:00,
2013-03-08 01:52:00,25.0,19.0,30.13,WNW,298,3.0,14.0,79,0.00,,,0.02,,2013-03-08 06:52:00,
2013-03-08 02:01:00,25.0,19.0,30.13,West,260,1.0,6.0,79,0.00,,,0.02,,2013-03-08 07:01:00,
2013-03-08 02:11:00,25.0,19.0,30.13,West,260,1.0,6.0,79,0.00,,,0.02,,2013-03-08 07:11:00,
2013-03-08 02:22:00,25.0,20.0,30.14,WSW,250,1.0,6.0,80,0.00,,,0.02,,2013-03-08 07:22:00,
2013-03-08 02:32:00,25.0,20.0,30.13,NNW,336,0.0,0.0,81,0.00,,,0.02,,2013-03-08 07:32:00,
2013-03-08 02:42:00,25.0,20.0,30.13,NNW,336,0.0,0.0,81,0.00,,,0.02,,2013-03-08 07:42:00,
2013-03-08 02:52:00,25.0,20.0,30.13,WSW,239,2.0,3.0,81,0.00,,,0.02,,2013-03-08 07:52:00,
2013-03-08 03:01:00,24.0,19.0,30.12,SW,233,2.0,6.0,81,0.00,,,0.02,,2013-03-08 08:01:00,
2013-03-08 03:11:00,24.0,19.0,30.12,SW,233,2.0,6.0,81,0.00,,,0.02,,2013-03-08 08:11:00,
2013-03-08 03:22:00,24.0,19.0,30.11,SSW,196,0.0,6.0,81,0.00,,,0.02,,2013-03-08 08:22:00,
2013-03-08 03:32:00,24.0,19.0,30.10,NNW,334,0.0,4.0,81,0.00,,,0.02,,2013-03-08 08:32:00,
2013-03-08 03:42:00,24.0,19.0,30.10,NNW,334,0.0,4.0,81,0.00,,,0.02,,2013-03-08 08:42:00,
2013-03-08 03:52:00,24.0,19.0,30.10,WSW,242,2.0,6.0,80,0.00,,,0.02,,2013-03-08 08:52:00,
2013-03-08 04:03:00,24.0,19.0,30.09,WSW,237,0.0,3.0,81,0.00,,,0.02,,2013-03-08 09:03:00,
2013-03-08 04:11:00,24.0,19.0,30.09,WSW,237,0.0,3.0,81,0.00,,,0.02,,2013-03-08 09:11:00,
2013-03-08 04:21:00,24.0,19.0,30.09,NNW,346,0.0,0.0,81,0.00,,,0.02,,2013-03-08 09:21:00,
2013-03-08 04:32:00,23.0,18.0,30.09,WNW,290,0.0,5.0,81,0.00,,,0.02,,2013-03-08 09:32:00,
2013-03-08 04:42:00,23.0,18.0,30.09,WNW,290,0.0,5.0,81,0.00,,,0.02,,2013-03-08 09:42:00,
2013-03-08 04:52:00,24.0,19.0,30.10,NNE,15,3.0,11.0,80,0.00,,,0.02,,2013-03-08 09:52:00,
2013-03-08 05:01:00,24.0,18.0,30.10,NW,319,0.0,4.0,79,0.00,,,0.02,,2013-03-08 10:01:00,
2013-03-08 05:11:00,24.0,18.0,30.10,NW,319,0.0,4.0,79,0.00,,,0.02,,2013-03-08 10:11:00,
2013-03-08 05:21:00,24.0,18.0,30.11,NNW,334,1.0,5.0,79,0.00,,,0.02,,2013-03-08 10:21:00,
2013-03-08 05:32:00,24.0,18.0,30.11,ENE,64,5.0,9.0,79,0.00,,,0.02,,2013-03-08 10:32:00,
2013-03-08 05:42:00,24.0,18.0,30.11,ENE,64,5.0,9.0,79,0.00,,,0.02,,2013-03-08 10:42:00,
2013-03-08 05:52:00,24.0,18.0,30.10,NNE,25,4.0,14.0,79,0.00,,,0.02,,2013-03-08 10:52:00,
2013-03-08 06:01:00,25.0,19.0,30.10,NE,42,7.0,13.0,78,0.00,,,0.02,,2013-03-08 11:01:00,
2013-03-08 06:11:00,25.0,19.0,30.10,NE,42,7.0,13.0,78,0.00,,,0.02,,2013-03-08 11:11:00,
2013-03-08 06:21:00,25.0,19.0,30.10,NNE,15,7.0,16.0,77,0.00,,,0.02,,2013-03-08 11:21:00,
2013-03-08 06:32:00,25.0,19.0,30.11,North,5,6.0,15.0,77,0.00,,,0.02,,2013-03-08 11:32:00,
2013-03-08 06:42:00,25.0,19.0,30.11,North,5,6.0,15.0,77,0.00,,,0.02,,2013-03-08 11:42:00,
2013-03-08 06:52:00,25.0,19.0,30.12,North,10,4.0,12.0,77,0.00,,,0.02,,2013-03-08 11:52:00,
2013-03-08 07:02:00,25.0,19.0,30.12,ENE,60,4.0,11.0,78,0.00,,,0.02,,2013-03-08 12:02:00,
2013-03-08 07:11:00,25.0,19.0,30.12,ENE,60,4.0,11.0,78,0.00,,,0.02,,2013-03-08 12:11:00,
2013-03-08 07:22:00,25.0,19.0,30.13,NNE,12,6.0,11.0,78,0.00,,,0.02,,2013-03-08 12:22:00,
2013-03-08 07:32:00,25.0,19.0,30.13,North,10,8.0,18.0,79,0.00,,,0.02,,2013-03-08 12:32:00,
2013-03-08 07:43:00,25.0,19.0,30.13,North,10,8.0,18.0,79,0.00,,,0.02,,2013-03-08 12:43:00,
2013-03-08 07:53:00,25.0,19.0,30.14,NNE,15,8.0,17.0,79,0.00,,,0.02,,2013-03-08 12:53:00,
2013-03-08 08:01:00,25.0,20.0,30.15,NNE,19,9.0,19.0,80,0.00,,,0.02,,2013-03-08 13:01:00,
2013-03-08 08:11:00,25.0,20.0,30.15,NNE,19,9.0,19.0,80,0.00,,,0.02,,2013-03-08 13:11:00,
2013-03-08 08:22:00,25.0,20.0,30.16,North,350,5.0,15.0,80,0.00,,,0.02,,2013-03-08 13:22:00,
2013-03-08 08:32:00,26.0,20.0,30.16,NW,309,3.0,14.0,79,0.00,,,0.02,,2013-03-08 13:32:00,
2013-03-08 08:42:00,26.0,20.0,30.16,NW,309,3.0,14.0,79,0.00,,,0.02,,2013-03-08 13:42:00,
2013-03-08 08:52:00,26.0,20.0,30.17,NW,308,6.0,14.0,79,0.00,,,0.02,,2013-03-08 13:52:00,
2013-03-08 09:02:00,27.0,21.0,30.17,NW,323,10.0,19.0,78,0.00,,,0.02,,2013-03-08 14:02:00,
2013-03-08 09:11:00,27.0,21.0,30.17,NW,323,10.0,19.0,78,0.00,,,0.02,,2013-03-08 14:11:00,
2013-03-08 09:22:00,28.0,22.0,30.17,NNW,340,9.0,23.0,78,0.00,,,0.02,,2013-03-08 14:22:00,
2013-03-08 09:32:00,29.0,22.0,30.16,NNW,341,10.0,19.0,76,0.00,,,0.02,,2013-03-08 14:32:00,
2013-03-08 09:42:00,29.0,22.0,30.16,NNW,341,10.0,19.0,76,0.00,,,0.02,,2013-03-08 14:42:00,
2013-03-08 09:53:00,29.0,22.0,30.18,ENE,62,8.0,19.0,74,0.00,,,0.02,,2013-03-08 14:53:00,
2013-03-08 10:03:00,31.0,23.0,30.18,NNW,333,7.0,16.0,71,0.00,,,0.02,,2013-03-08 15:03:00,
2013-03-08 10:12:00,32.0,23.0,30.18,NNW,332,3.0,9.0,68,0.00,,,0.02,,2013-03-08 15:12:00,
2013-03-08 10:22:00,32.0,23.0,30.18,NNW,332,3.0,9.0,68,0.00,,,0.02,,2013-03-08 15:22:00,
2013-03-08 10:32:00,33.0,23.0,30.19,NNE,18,6.0,12.0,66,0.00,,,0.02,,2013-03-08 15:32:00,
2013-03-08 10:42:00,33.0,23.0,30.19,NNE,18,6.0,12.0,66,0.00,,,0.02,,2013-03-08 15:42:00,
2013-03-08 10:53:00,34.0,24.0,30.19,NNW,329,4.0,12.0,66,0.00,,,0.02,,2013-03-08 15:53:00,
2013-03-08 11:01:00,35.0,24.0,30.19,NW,307,6.0,16.0,65,0.00,,,0.02,,2013-03-08 16:01:00,
2013-03-08 11:11:00,35.0,24.0,30.19,NW,307,6.0,16.0,65,0.00,,,0.02,,2013-03-08 16:11:00,
2013-03-08 11:22:00,36.0,24.0,30.20,North,355,4.0,13.0,62,0.00,,,0.02,,2013-03-08 16:22:00,
2013-03-08 11:32:00,36.0,24.0,30.20,WNW,296,6.0,14.0,61,0.00,,,0.02,,2013-03-08 16:32:00,
2013-03-08 11:42:00,36.0,24.0,30.20,WNW,296,6.0,14.0,61,0.00,,,0.02,,2013-03-08 16:42:00,
2013-03-08 11:52:00,38.0,25.0,30.20,ENE,72,4.0,11.0,59,0.00,,,0.02,,2013-03-08 16:52:00,
2013-03-08 12:03:00,38.0,25.0,30.20,NW,322,5.0,13.0,58,0.00,,,0.02,,2013-03-08 17:03:00,
2013-03-08 12:11:00,38.0,25.0,30.20,NW,322,5.0,13.0,58,0.00,,,0.02,,2013-03-08 17:11:00,
2013-03-08 12:21:00,39.0,25.0,30.20,East,83,1.0,13.0,58,0.00,,,0.02,,2013-03-08 17:21:00,
2013-03-08 12:32:00,40.0,26.0,30.20,North,11,1.0,7.0,56,0.00,,,0.01,,2013-03-08 17:32:00,
2013-03-08 12:42:00,40.0,26.0,30.20,North,11,1.0,7.0,56,0.00,,,0.01,,2013-03-08 17:42:00,
2013-03-08 12:52:00,39.0,25.0,30.19,WNW,287,7.0,12.0,56,0.00,,,0.01,,2013-03-08 17:52:00,
2013-03-08 13:02:00,39.0,25.0,30.19,WNW,299,6.0,13.0,56,0.00,,,0.01,,2013-03-08 18:02:00,
2013-03-08 13:11:00,39.0,25.0,30.19,WNW,299,6.0,13.0,56,0.00,,,0.01,,2013-03-08 18:11:00,
2013-03-08 13:21:00,41.0,26.0,30.18,ENE,71,4.0,10.0,54,0.00,,,0.00,,2013-03-08 18:21:00,
2013-03-08 13:32:00,40.0,25.0,30.17,North,5,5.0,14.0,54,0.00,,,0.00,,2013-03-08 18:32:00,
2013-03-08 13:42:00,40.0,25.0,30.17,North,5,5.0,14.0,54,0.00,,,0.00,,2013-03-08 18:42:00,
2013-03-08 13:52:00,42.0,27.0,30.16,NNW,329,3.0,16.0,54,0.00,,,0.00,,2013-03-08 18:52:00,
2013-03-08 14:01:00,41.0,25.0,30.16,NW,315,2.0,15.0,52,0.00,,,0.00,,2013-03-08 19:01:00,
2013-03-08 14:11:00,41.0,25.0,30.16,NW,315,2.0,15.0,52,0.00,,,0.00,,2013-03-08 19:11:00,
2013-03-08 14:22:00,42.0,26.0,30.16,NNW,340,6.0,14.0,52,0.00,,,0.00,,2013-03-08 19:22:00,
2013-03-08 14:32:00,42.0,27.0,30.16,NW,311,5.0,12.0,54,0.00,,,0.00,,2013-03-08 19:32:00,
2013-03-08 14:42:00,42.0,27.0,30.16,NW,311,5.0,12.0,54,0.00,,,0.00,,2013-03-08 19:42:00,
2013-03-08 14:52:00,42.0,27.0,30.16,NW,314,5.0,14.0,54,0.00,,,0.00,,2013-03-08 19:52:00,
2013-03-08 15:01:00,42.0,27.0,30.16,North,10,6.0,17.0,54,0.00,,,0.00,,2013-03-08 20:01:00,
2013-03-08 15:11:00,42.0,27.0,30.16,North,10,6.0,17.0,54,0.00,,,0.00,,2013-03-08 20:11:00,
2013-03-08 15:22:00,43.0,27.0,30.17,North,360,3.0,11.0,53,0.00,,,0.00,,2013-03-08 20:22:00,
2013-03-08 15:32:00,43.0,26.0,30.17,NNW,347,5.0,11.0,51,0.00,,,0.00,,2013-03-08 20:32:00,
2013-03-08 15:42:00,43.0,26.0,30.17,NNW,347,5.0,11.0,51,0.00,,,0.00,,2013-03-08 20:42:00,
2013-03-08 15:53:00,41.0,27.0,30.18,West,263,5.0,15.0,56,0.00,,,0.00,,2013-03-08 20:53:00,
2013-03-08 16:02:00,42.0,26.0,30.18,NW,311,4.0,14.0,53,0.00,,,0.00,,2013-03-08 21:02:00,
2013-03-08 16:11:00,42.0,26.0,30.18,NW,311,4.0,14.0,53,0.00,,,0.00,,2013-03-08 21:11:00,
2013-03-08 16:22:00,42.0,26.0,30.17,West,273,5.0,14.0,53,0.00,,,0.00,,2013-03-08 21:22:00,
2013-03-08 16:32:00,42.0,26.0,30.18,NW,321,5.0,12.0,53,0.00,,,0.00,,2013-03-08 21:32:00,
2013-03-08 16:42:00,42.0,26.0,30.18,NW,321,5.0,12.0,53,0.00,,,0.00,,2013-03-08 21:42:00,
2013-03-08 16:52:00,42.0,27.0,30.19,WNW,285,3.0,13.0,54,0.00,,,0.00,,2013-03-08 21:52:00,
2013-03-08 17:01:00,42.0,27.0,30.19,WNW,295,3.0,10.0,54,0.00,,,0.00,,2013-03-08 22:01:00,
2013-03-08 17:11:00,42.0,27.0,30.19,WNW,295,3.0,10.0,54,0.00,,,0.00,,2013-03-08 22:11:00,
2013-03-08 17:22:00,43.0,27.0,30.18,NE,48,2.0,9.0,53,0.00,,,0.00,,2013-03-08 22:22:00,
2013-03-08 17:32:00,43.0,26.0,30.18,NE,34,1.0,10.0,51,0.00,,,0.00,,2013-03-08 22:32:00,
2013-03-08 17:42:00,43.0,26.0,30.18,NE,34,1.0,10.0,51,0.00,,,0.00,,2013-03-08 22:42:00,
2013-03-08 17:53:00,42.0,26.0,30.18,ENE,64,2.0,11.0,53,0.00,,,0.00,,2013-03-08 22:53:00,
2013-03-08 18:02:00,41.0,26.0,30.18,NE,42,1.0,9.0,54,0.00,,,0.00,,2013-03-08 23:02:00,
2013-03-08 18:12:00,41.0,26.0,30.18,NE,42,1.0,9.0,54,0.00,,,0.00,,2013-03-08 23:12:00,
2013-03-08 18:22:00,40.0,26.0,30.18,NE,49,0.0,0.0,56,0.00,,,0.00,,2013-03-08 23:22:00,
2013-03-08 18:32:00,38.0,25.0,30.18,NNE,32,2.0,6.0,59,0.00,,,0.00,,2013-03-08 23:32:00,
2013-03-08 18:42:00,38.0,25.0,30.18,NNE,32,2.0,6.0,59,0.00,,,0.00,,2013-03-08 23:42:00,
2013-03-08 18:53:00,37.0,24.0,30.17,ENE,65,2.0,9.0,59,0.00,,,0.00,,2013-03-08 23:53:00,
2013-03-08 19:02:00,36.0,24.0,30.17,East,96,0.0,0.0,62,0.00,,,0.00,,2013-03-09 00:02:00,
2013-03-08 19:12:00,36.0,24.0,30.17,East,96,0.0,0.0,62,0.00,,,0.00,,2013-03-09 00:12:00,
2013-03-08 19:22:00,35.0,24.0,30.18,East,93,0.0,5.0,63,0.00,,,0.00,,2013-03-09 00:22:00,
2013-03-08 19:32:00,35.0,23.0,30.18,ENE,65,0.0,6.0,62,0.00,,,0.00,,2013-03-09 00:32:00,
2013-03-08 19:42:00,35.0,23.0,30.18,ENE,65,0.0,6.0,62,0.00,,,0.00,,2013-03-09 00:42:00,
2013-03-08 19:52:00,35.0,24.0,30.19,ENE,65,0.0,0.0,63,0.00,,,0.00,,2013-03-09 00:52:00,
2013-03-08 20:01:00,34.0,23.0,30.19,ENE,65,0.0,0.0,65,0.00,,,0.00,,2013-03-09 01:01:00,
2013-03-08 20:12:00,33.0,23.0,30.20,East,82,0.0,3.0,66,0.00,,,0.00,,2013-03-09 01:12:00,
2013-03-08 20:22:00,33.0,23.0,30.20,East,82,0.0,3.0,66,0.00,,,0.00,,2013-03-09 01:22:00,
2013-03-08 20:32:00,33.0,23.0,30.20,NE,37,0.0,6.0,67,0.00,,,0.00,,2013-03-09 01:32:00,
2013-03-08 20:42:00,33.0,23.0,30.20,NE,37,0.0,6.0,67,0.00,,,0.00,,2013-03-09 01:42:00,
2013-03-08 20:52:00,33.0,23.0,30.20,NE,56,2.0,7.0,67,0.00,,,0.00,,2013-03-09 01:52:00,
2013-03-08 21:01:00,33.0,24.0,30.19,ENE,71,0.0,7.0,68,0.00,,,0.00,,2013-03-09 02:01:00,
2013-03-08 21:11:00,33.0,24.0,30.19,ENE,71,0.0,7.0,68,0.00,,,0.00,,2013-03-09 02:11:00,
2013-03-08 21:21:00,33.0,24.0,30.21,East,84,0.0,0.0,68,0.00,,,0.00,,2013-03-09 02:21:00,
2013-03-08 21:31:00,32.0,24.0,30.21,SE,129,0.0,4.0,71,0.00,,,0.00,,2013-03-09 02:31:00,
2013-03-08 21:41:00,32.0,24.0,30.21,SE,129,0.0,0.0,71,0.00,,,0.00,,2013-03-09 02:41:00,
2013-03-08 21:51:00,32.0,24.0,30.21,SE,129,0.0,0.0,71,0.00,,,0.00,,2013-03-09 02:51:00,
2013-03-08 22:01:00,31.0,23.0,30.22,SE,129,0.0,0.0,71,0.00,,,0.00,,2013-03-09 03:01:00,
2013-03-08 22:11:00,31.0,23.0,30.22,SE,129,0.0,0.0,71,0.00,,,0.00,,2013-03-09 03:11:00,
2013-03-08 22:21:00,31.0,22.0,30.22,SE,129,0.0,0.0,69,0.00,,,0.00,,2013-03-09 03:21:00,
2013-03-08 22:31:00,31.0,22.0,30.22,NE,45,3.0,7.0,70,0.00,,,0.00,,2013-03-09 03:31:00,
2013-03-08 22:41:00,31.0,22.0,30.22,NE,45,3.0,7.0,70,0.00,,,0.00,,2013-03-09 03:41:00,
2013-03-08 22:52:00,32.0,23.0,30.22,East,87,0.0,3.0,68,0.00,,,0.00,,2013-03-09 03:52:00,
2013-03-08 23:01:00,32.0,23.0,30.22,South,183,0.0,0.0,69,0.00,,,0.00,,2013-03-09 04:01:00,
2013-03-08 23:11:00,32.0,23.0,30.22,South,183,0.0,0.0,69,0.00,,,0.00,,2013-03-09 04:11:00,
2013-03-08 23:22:00,31.0,22.0,30.22,South,183,0.0,0.0,70,0.00,,,0.00,,2013-03-09 04:22:00,
2013-03-08 23:32:00,30.0,22.0,30.22,South,182,0.0,0.0,72,0.00,,,0.00,,2013-03-09 04:32:00,
2013-03-08 23:42:00,30.0,22.0,30.22,South,182,0.0,0.0,72,0.00,,,0.00,,2013-03-09 04:42:00,
2013-03-08 23:52:00,29.0,21.0,30.23,South,183,0.0,0.0,73,0.00,,,0.00,,2013-03-09 04:52:00,